Location: ?????????
(41.2393°N, 22.9479°E)
Time: 21:13:59
(UTC+00:00)

Cosmos 489 Rocket - Pass Details

Date: 17 November 2025
Orbit: 952 x 982 km, 74.0° (Epoch: 11 December)

Event Time Altitude Azimuth Distance (km) Brightness Sun altitude
Rises 16:50:30 0° 342° (NNW) 3,661 7.6 -19.3°
Reaches altitude 10° 16:53:05 10° 346° (NNW) 2,707 6.9 -19.8°
Maximum altitude 16:59:18 65° 68° (ENE) 1,046 4.4 -21.0°
Drops below altitude 10° 17:05:27 10° 150° (SSE) 2,674 6.6 -22.1°
Sets 17:07:58 0° 153° (SSE) 3,614 7.3 -22.6°
